Site menu:

About:

weather.olc.net provides weather information from NOAA, the National Weather Service, Weather Underground, and current weather data collected outside of Orangeburg, SC near Great Branch.


Today's Forecast

Tonight

Tonight: Clear, with a low around 29. West wind 5 to 11 mph, with gusts as high as 21 mph.
Clear

Low: 29 °F

Sunday

Sunday: Increasing clouds, with a high near 51. Light southwest wind increasing to 6 to 11 mph in the morning.
Increasing
Clouds
High: 51 °F

Weather Almanac

Today In 2020
High: 76.3°F
Low: 46.3°F

Today in 2019
High: 58.3°F
Low: 27.6°F

Columbia Metro Airport

Jan 16th Weather Records
Astronomical Info

Sunrise:
07:27 am

Sunset:
05:40 pm
Civil Twilight    
Dawn:
07:00 am
Dusk:
06:07 pm
Moonrise: 10:05 am
Moonset: 09:21 pm
First Qtr.Jan 20
Full MoonJan 28
Last Qtr.Feb 04
New MoonFeb 11
Current PhaseWaxing Crescent 16%

Regional Weather Roundup
Issued by NWS Columbia, SC


000
ASUS42 KCAE 162310
RWRCAE
REGIONAL WEATHER ROUNDUP
NATIONAL WEATHER SERVICE COLUMBIA SC
600 PM EST SAT JAN 16 2021

NOTE: "FAIR" INDICATES FEW OR NO CLOUDS BELOW 12,000 FEET WITH NO
SIGNIFICANT WEATHER AND/OR OBSTRUCTIONS TO VISIBILITY.

NOT ALL STATIONS ARE QUALITY CONTROLLED BY THE NATIONAL
WEATHER SERVICE. USE DATA WITH CAUTION...ESPECIALLY
DEWPOINT OBSERVATIONS.

SCZ001>056-GAZ040-063>065-077-170000-
...UPSTATE SOUTH CAROLINA...

CITY           SKY/WX    TMP DP  RH WIND       PRES   REMARKS
ANDERSON       CLEAR     40  21  46 W15       29.86R WCI  32
LIBERTY        CLEAR     38  21  51 W15       29.82R WCI  29
SPARTANBURG    CLEAR     37  19  48 W8        29.81R WCI  31
CLEMSON        CLEAR     37  20  50 W8        29.86R WCI  31
GREENVILLE     CLEAR     40  22  48 W13       29.82R WCI  32
GREENWOOD      PTCLDY    39  23  52 W9        29.87R WCI  33
GREER          CLEAR     38  17  42 W5        29.81R WCI  34
ROCK HILL      PTCLDY    42  23  46 W8        29.79R
CHESTER        CLEAR     41  23  48 W3        29.82R
LAURENS        CLEAR     39  23  52 W9G18     29.84R WCI  33


...CENTRAL SOUTH CAROLINA...

CITY           SKY/WX    TMP DP  RH WIND       PRES   REMARKS
COLUMBIA APT   PTCLDY    43  23  45 W15G22    29.86R
COLUMBIA OWENS CLEAR     45  23  42 W10       29.86R
MCENTIRE ANGB  CLEAR     43  23  46 W10       29.84R
ORANGEBURG     CLEAR     44  23  43 W10       29.88R
SUMTER SHAW    CLEAR     43  23  44 W13       29.84R
NEWBERRY       CLEAR     39  23  52 W9        29.88R WCI  33
AIKEN          FAIR      41  23  49 W12       29.89R
BARNWELL       FAIR      45  25  45 NW6G13    29.90R
MANNING        FAIR      43  25  49 W5        29.87R
CAMDEN         FAIR      43  23  45 SW8G14    29.83R
LANCASTER      CLEAR     41  23  48 SW9       29.81R
WINNSBORO      CLEAR     41  27  56 W10G18    29.83R


...EASTERN AND COASTAL SOUTH CAROLINA...

CITY           SKY/WX    TMP DP  RH WIND       PRES   REMARKS
MYRTLE BEACH   CLEAR     46  24  42 W14G21    29.83R
N MYRTLE BCH   CLEAR     45  27  49 W7        29.82R
CONWAY         FAIR      45  27  49 W6        29.83R
MARION         FAIR      43  27  52 W10       29.82R
HARTSVILLE     FAIR      43  23  45 W6G15     29.81R
FLORENCE       CLEAR     45  23  42 W12G23    29.82R
DARLINGTON     PTCLDY    44  26  49 W15       29.81R
CHARLESTON APT CLEAR     46  24  42 W9        29.88R
MOUNT PLEASANT FAIR      46  23  39 W13G20    29.88R
WALTERBORO     CLEAR     45  25  45 W10G17    29.90R
BEAUFORT       CLEAR     47  25  42 W10       29.91R
HILTON HEAD    CLEAR     48  25  40 W13G21    29.92R


...EASTERN GEORGIA...

CITY           SKY/WX    TMP DP  RH WIND       PRES   REMARKS
AUGUSTA BUSH F CLEAR     45  24  43 W10       29.91R
AUGUSTA DANIEL CLEAR     44  23  43 W5        29.90R
THOMSON        PTCLDY    42  24  50 NW5       29.91R
WASHINGTON       N/A     41  25  52 W9        29.90R
CLAXTON        FAIR      47  26  43 CALM      29.94R
SYLVANIA       CLEAR     46  25  43 W7        29.92R
STATESBORO     CLEAR     46  24  42 W7        29.93R
SAVANNAH       PTCLDY    47  25  42 W9        29.93R


...SOUTHERN NORTH CAROLINA...

CITY           SKY/WX    TMP DP  RH WIND       PRES   REMARKS
CHARLOTTE      PTCLDY    41  24  51 W9        29.79R
MONROE         PTCLDY    42  24  49 W7        29.78R
WADESBORO      CLEAR     44  22  40 W6        29.78R
ROCKINGHAM     CLEAR     43  24  46 W7        29.78R
RUTHERFORDTON  CLEAR     37  18  44 W20G30    29.80R WCI  27
ASHEVILLE      PTCLDY    33  17  51 NW17G23   29.77R WCI  22

$$